| time (UTC) | temp F | wind direction | speed MPH | gust MPH | rain 1hr in | rain 24hr in | rain mn in | humidity % | barometer mb |
| 20260503045531 | 40 | 315 | 4.0 | 9.0 | 0.00 | 0.00 | 0.00 | 69 | 1014.6 |
| 20260503044517 | 40 | 289 | 5.0 | 9.0 | 0.00 | 0.00 | 0.00 | 69 | 1014.8 |
| 20260503043503 | 40 | 305 | 8.0 | 15.0 | 0.00 | 0.00 | 0.00 | 70 | 1014.6 |
| 20260503042508 | 40 | 300 | 10.0 | 15.0 | 0.00 | 0.00 | 0.00 | 70 | 1014.4 |
| 20260503041514 | 40 | 313 | 6.0 | 9.0 | 0.00 | 0.00 | 0.00 | 70 | 1014.4 |
| 20260503040502 | 40 | 300 | 3.0 | 8.0 | 0.00 | 0.00 | 0.00 | 69 | 1014.3 |
| 20260503035518 | 40 | 305 | 4.0 | 8.0 | 0.00 | 0.00 | 0.00 | 69 | 1014.3 |
| 20260503034503 | 40 | 306 | 5.0 | 9.0 | 0.00 | 0.00 | 0.00 | 69 | 1014.3 |
| 20260503033513 | 41 | 304 | 4.0 | 9.0 | 0.00 | 0.00 | 0.00 | 69 | 1014.2 |
| 20260503032517 | 41 | 303 | 5.0 | 9.0 | 0.00 | 0.00 | 0.00 | 67 | 1014.0 |
| 20260503031503 | 41 | 304 | 6.0 | 9.0 | 0.00 | 0.00 | 0.00 | 66 | 1014.0 |
| 20260503030510 | 41 | 306 | 6.0 | 11.0 | 0.00 | 0.00 | 0.00 | 66 | 1014.8 |
| 20260503025517 | 41 | 300 | 3.0 | 10.0 | 0.00 | 0.00 | 0.00 | 66 | 1014.7 |
| 20260503024507 | 42 | 17 | 6.0 | 11.0 | 0.00 | 0.00 | 0.00 | 66 | 1014.7 |
| 20260503023516 | 42 | 298 | 8.0 | 14.0 | 0.00 | 0.00 | 0.00 | 65 | 1014.7 |
| 20260503022522 | 42 | 296 | 9.0 | 16.0 | 0.00 | 0.00 | 0.00 | 65 | 1014.5 |
| 20260503021508 | 42 | 293 | 9.0 | 14.0 | 0.00 | 0.00 | 0.00 | 65 | 1014.6 |
| 20260503020535 | 42 | 310 | 5.0 | 11.0 | 0.00 | 0.00 | 0.00 | 66 | 1014.6 |
| 20260503015520 | 42 | 308 | 6.0 | 10.0 | 0.00 | 0.00 | 0.00 | 65 | 1014.4 |
| 20260503014524 | 43 | 315 | 3.0 | 11.0 | 0.00 | 0.00 | 0.00 | 65 | 1014.3 |
| 20260503013531 | 43 | 300 | 5.0 | 10.0 | 0.00 | 0.00 | 0.00 | 64 | 1014.3 |
| 20260503012512 | 43 | 292 | 5.0 | 8.0 | 0.00 | 0.00 | 0.00 | 64 | 1014.1 |
| 20260503011517 | 43 | 333 | 3.0 | 10.0 | 0.00 | 0.00 | 0.00 | 63 | 1013.9 |
| 20260503010506 | 44 | 290 | 7.0 | 12.0 | 0.00 | 0.00 | 0.00 | 62 | 1013.9 |
| 20260503005516 | 44 | 301 | 3.0 | 12.0 | 0.00 | 0.00 | 0.00 | 62 | 1014.0 |
| 20260503004521 | 45 | 291 | 6.0 | 11.0 | 0.00 | 0.00 | 0.00 | 62 | 1013.8 |
| 20260503003509 | 45 | 305 | 5.0 | 11.0 | 0.00 | 0.00 | 0.00 | 61 | 1013.9 |
| 20260503002515 | 46 | 360 | 5.0 | 13.0 | 0.00 | 0.00 | 0.00 | 59 | 1013.6 |
| 20260503001521 | 46 | 355 | 4.0 | 16.0 | 0.00 | 0.00 | 0.00 | 58 | 1013.6 |
| 20260503000507 | 47 | 301 | 5.0 | 10.0 | 0.00 | 0.00 | 0.00 | 57 | 1013.6 |
| 20260502235515 | 47 | 20 | 5.0 | 16.0 | 0.00 | 0.00 | 0.00 | 56 | 1013.2 |
| 20260502234504 | 48 | 317 | 13.0 | 18.0 | 0.00 | 0.00 | 0.00 | 55 | 1013.0 |
| 20260502233510 | 48 | 314 | 7.0 | 16.0 | 0.00 | 0.00 | 0.00 | 54 | 1012.9 |
| 20260502232518 | 49 | 310 | 6.0 | 11.0 | 0.00 | 0.00 | 0.00 | 53 | 1012.8 |
| 20260502231502 | 49 | 302 | 8.0 | 17.0 | 0.00 | 0.00 | 0.00 | 52 | 1012.7 |
| 20260502230510 | 49 | 17 | 9.0 | 15.0 | 0.00 | 0.00 | 0.00 | 53 | 1012.7 |
| 20260502225516 | 49 | 312 | 4.0 | 11.0 | 0.00 | 0.00 | 0.00 | 53 | 1012.6 |
| 20260502224519 | 50 | 326 | 4.0 | 15.0 | 0.00 | 0.00 | 0.00 | 53 | 1012.6 |
| 20260502223531 | 50 | 355 | 7.0 | 18.0 | 0.00 | 0.00 | 0.00 | 52 | 1012.6 |
| 20260502222516 | 50 | 355 | 11.0 | 19.0 | 0.00 | 0.00 | 0.00 | 51 | 1012.6 |
| 20260502221505 | 50 | 307 | 10.0 | 18.0 | 0.00 | 0.00 | 0.00 | 52 | 1012.3 |
| 20260502220532 | 50 | 293 | 11.0 | 27.0 | 0.00 | 0.00 | 0.00 | 50 | 1012.1 |
| 20260502215515 | 52 | 18 | 10.0 | 16.0 | 0.00 | 0.00 | 0.00 | 48 | 1012.1 |
| 20260502214504 | 52 | 307 | 8.0 | 18.0 | 0.00 | 0.00 | 0.00 | 49 | 1011.9 |
| 20260502213511 | 52 | 350 | 8.0 | 17.0 | 0.00 | 0.00 | 0.00 | 51 | 1011.9 |
| 20260502212518 | 51 | 303 | 7.0 | 18.0 | 0.00 | 0.00 | 0.00 | 50 | 1011.9 |
| 20260502211503 | 54 | 346 | 12.0 | 21.0 | 0.00 | 0.00 | 0.00 | 47 | 1011.7 |
| 20260502210512 | 54 | 355 | 9.0 | 22.0 | 0.00 | 0.00 | 0.00 | 47 | 1011.5 |
| 20260502205520 | 53 | 5 | 12.0 | 23.0 | 0.00 | 0.00 | 0.00 | 47 | 1011.4 |
| 20260502204506 | 54 | 11 | 7.0 | 18.0 | 0.00 | 0.00 | 0.00 | 46 | 1011.3 |
| 20260502203510 | 55 | 302 | 7.0 | 17.0 | 0.00 | 0.00 | 0.00 | 45 | 1011.3 |
| 20260502202517 | 55 | 11 | 10.0 | 20.0 | 0.00 | 0.00 | 0.00 | 47 | 1011.2 |
| 20260502201522 | 56 | 300 | 5.0 | 21.0 | 0.00 | 0.00 | 0.00 | 45 | 1011.2 |
| 20260502200509 | 58 | 286 | 6.0 | 15.0 | 0.00 | 0.00 | 0.00 | 44 | 1011.2 |
| 20260502195521 | 58 | 314 | 9.0 | 19.0 | 0.00 | 0.00 | 0.00 | 43 | 1011.1 |
| 20260502194506 | 58 | 346 | 9.0 | 17.0 | 0.00 | 0.00 | 0.00 | 43 | 1011.4 |
| 20260502193514 | 57 | 288 | 5.0 | 15.0 | 0.00 | 0.00 | 0.00 | 44 | 1011.5 |
| 20260502192507 | 56 | 12 | 9.0 | 18.0 | 0.00 | 0.00 | 0.00 | 47 | 1011.7 |
| 20260502191512 | 56 | 17 | 6.0 | 18.0 | 0.00 | 0.00 | 0.00 | 44 | 1011.7 |
| 20260502190518 | 56 | 29 | 5.0 | 15.0 | 0.00 | 0.00 | 0.00 | 43 | 1011.6 |
| 20260502185504 | 56 | 303 | 2.0 | 20.0 | 0.00 | 0.00 | 0.00 | 41 | 1011.5 |
| 20260502184533 | 56 | 355 | 11.0 | 16.0 | 0.00 | 0.00 | 0.00 | 46 | 1011.6 |
| 20260502183517 | 55 | 281 | 6.0 | 17.0 | 0.00 | 0.00 | 0.00 | 46 | 1011.6 |
| 20260502182508 | 56 | 28 | 10.0 | 18.0 | 0.00 | 0.00 | 0.00 | 44 | 1011.6 |
| 20260502181517 | 55 | 336 | 7.0 | 12.0 | 0.00 | 0.00 | 0.00 | 47 | 1011.8 |
| 20260502180503 | 55 | 304 | 8.0 | 15.0 | 0.00 | 0.00 | 0.00 | 48 | 1012.1 |
| 20260502170518 | 52 | 307 | 5.0 | 13.0 | 0.00 | 0.00 | 0.00 | 49 | 1012.6 |
| 20260502163516 | 52 | 360 | 8.0 | 11.0 | 0.00 | 0.00 | 0.00 | 54 | 1013.2 |
| 20260502162519 | 51 | 355 | 7.0 | 15.0 | 0.00 | 0.00 | 0.00 | 50 | 1013.3 |
| 20260502161509 | 51 | 326 | 5.0 | 18.0 | 0.00 | 0.00 | 0.00 | 52 | 1013.4 |
| 20260502160537 | 50 | 304 | 8.0 | 13.0 | 0.00 | 0.00 | 0.00 | 55 | 1013.4 |
| 20260502151508 | 47 | 17 | 6.0 | 11.0 | 0.00 | 0.00 | 0.00 | 57 | 1013.7 |
| 20260502150516 | 46 | 355 | 8.0 | 17.0 | 0.00 | 0.00 | 0.00 | 57 | 1013.6 |
| 20260502130508 | 44 | 346 | 4.0 | 20.0 | 0.00 | 0.00 | 0.00 | 61 | 1013.3 |
| 20260502123512 | 43 | 5 | 10.0 | 15.0 | 0.00 | 0.00 | 0.00 | 64 | 1012.9 |
| 20260502122520 | 43 | 302 | 6.0 | 15.0 | 0.00 | 0.00 | 0.00 | 65 | 1012.9 |
| 20260502121505 | 43 | 5 | 7.0 | 14.0 | 0.00 | 0.00 | 0.00 | 68 | 1012.7 |
| 20260502120536 | 43 | 355 | 6.0 | 15.0 | 0.00 | 0.00 | 0.00 | 69 | 1012.6 |
| 20260502115506 | 43 | 314 | 7.0 | 15.0 | 0.00 | 0.00 | 0.00 | 70 | 1012.8 |
| 20260502114512 | 43 | 323 | 8.0 | 13.0 | 0.00 | 0.00 | 0.00 | 70 | 1012.8 |
| 20260502113537 | 43 | 296 | 9.0 | 19.0 | 0.00 | 0.00 | 0.00 | 70 | 1012.8 |
| 20260502112504 | 43 | 5 | 6.0 | 17.0 | 0.00 | 0.00 | 0.00 | 70 | 1012.5 |
| 20260502111514 | 43 | 286 | 8.0 | 13.0 | 0.00 | 0.00 | 0.00 | 70 | 1012.5 |
| 20260502110520 | 43 | 333 | 8.0 | 13.0 | 0.00 | 0.00 | 0.00 | 71 | 1012.5 |
| 20260502105505 | 43 | 335 | 6.0 | 12.0 | 0.00 | 0.00 | 0.00 | 72 | 1012.5 |
| 20260502104515 | 43 | 295 | 7.0 | 12.0 | 0.00 | 0.00 | 0.00 | 73 | 1012.4 |
| 20260502103509 | 43 | 296 | 3.0 | 17.0 | 0.00 | 0.00 | 0.00 | 75 | 1012.4 |
| 20260502102515 | 44 | 303 | 4.0 | 10.0 | 0.00 | 0.00 | 0.00 | 77 | 1012.3 |
| 20260502101508 | 44 | 295 | 5.0 | 13.0 | 0.00 | 0.00 | 0.00 | 78 | 1012.3 |
| 20260502100512 | 44 | 355 | 2.0 | 14.0 | 0.00 | 0.00 | 0.00 | 78 | 1012.5 |
| 20260502091511 | 45 | 355 | 5.0 | 13.0 | 0.00 | 0.00 | 0.00 | 80 | 1012.8 |
| 20260502090516 | 45 | 334 | 6.0 | 15.0 | 0.00 | 0.00 | 0.00 | 80 | 1012.8 |
| 20260502070508 | 46 | 355 | 5.0 | 14.0 | 0.00 | 0.00 | 0.00 | 79 | 1012.2 |
| 20260502065513 | 47 | 293 | 3.0 | 12.0 | 0.00 | 0.00 | 0.00 | 79 | 1012.4 |
| 20260502064521 | 47 | 323 | 7.0 | 11.0 | 0.00 | 0.00 | 0.00 | 79 | 1012.5 |
| 20260502063509 | 47 | 311 | 7.0 | 12.0 | 0.00 | 0.00 | 0.00 | 79 | 1012.7 |
| 20260502062516 | 47 | 351 | 6.0 | 11.0 | 0.00 | 0.00 | 0.00 | 79 | 1012.8 |
| 20260502061524 | 48 | 302 | 5.0 | 12.0 | 0.00 | 0.00 | 0.00 | 79 | 1012.9 |
| 20260502060510 | 48 | 348 | 3.0 | 8.0 | 0.00 | 0.00 | 0.00 | 79 | 1013.1 |
| 20260502055536 | 48 | 360 | 4.0 | 12.0 | 0.00 | 0.00 | 0.00 | 79 | 1013.2 |
| 20260502054520 | 48 | 344 | 7.0 | 13.0 | 0.00 | 0.00 | 0.00 | 80 | 1013.1 |
| 20260502053511 | 48 | 19 | 6.0 | 11.0 | 0.00 | 0.00 | 0.00 | 80 | 1013.0 |
| 20260502052520 | 48 | 345 | 6.0 | 11.0 | 0.00 | 0.00 | 0.00 | 79 | 1013.1 |
| 20260502051508 | 49 | 355 | 6.0 | 10.0 | 0.00 | 0.00 | 0.00 | 79 | 1012.9 |
| 20260502050517 | 49 | 331 | 4.0 | 11.0 | 0.00 | 0.00 | 0.00 | 79 | 1013.0 |